Time,TemperatureF,DewpointF,PressureIn,WindDirection,WindDirectionDegrees,WindSpeedMPH,WindSpeedGustMPH,Humidity,HourlyPrecipIn,Conditions,Clouds,dailyrainin,SoftwareType,DateUTC
2013-07-12 00:03:00,73.3,58.6,29.97,South,190,2.0,7.0,60,0.00,,,0.00,VWS V14.01,2013-07-12 05:03:00,
2013-07-12 00:08:00,73.3,58.1,29.97,SSW,211,5.0,10.0,59,0.00,,,0.00,VWS V14.01,2013-07-12 05:08:00,
2013-07-12 00:13:00,73.3,58.6,29.96,SSW,205,1.0,10.0,60,0.00,,,0.00,VWS V14.01,2013-07-12 05:13:00,
2013-07-12 00:18:00,73.2,58.5,29.96,SW,221,0.0,8.0,60,0.00,,,0.00,VWS V14.01,2013-07-12 05:18:00,
2013-07-12 00:23:00,73.2,58.5,29.97,WSW,242,0.0,12.0,60,0.00,,,0.00,VWS V14.01,2013-07-12 05:23:00,
2013-07-12 00:28:00,73.2,58.5,29.96,SW,226,4.0,12.0,60,0.00,,,0.00,VWS V14.01,2013-07-12 05:28:00,
2013-07-12 00:34:00,73.2,58.5,29.97,SSW,194,3.0,9.0,60,0.00,,,0.00,VWS V14.01,2013-07-12 05:34:00,
2013-07-12 00:39:00,73.1,58.4,29.97,South,185,4.0,9.0,60,0.00,,,0.00,VWS V14.01,2013-07-12 05:39:00,
2013-07-12 00:44:00,73.0,58.3,29.96,SSW,205,5.0,9.0,60,0.00,,,0.00,VWS V14.01,2013-07-12 05:44:00,
2013-07-12 00:49:00,72.9,58.7,29.96,SE,129,4.0,10.0,61,0.00,,,0.00,VWS V14.01,2013-07-12 05:49:00,
2013-07-12 00:54:00,72.8,58.6,29.97,South,179,7.0,11.0,61,0.00,,,0.00,VWS V14.01,2013-07-12 05:54:00,
2013-07-12 00:59:00,72.7,58.5,29.97,SSW,197,2.0,4.0,61,0.00,,,0.00,VWS V14.01,2013-07-12 05:59:00,
2013-07-12 01:04:00,72.6,58.4,29.96,SSW,206,6.0,9.0,61,0.00,,,0.00,VWS V14.01,2013-07-12 06:04:00,
2013-07-12 01:09:00,72.4,58.7,29.97,WSW,250,2.0,11.0,62,0.00,,,0.00,VWS V14.01,2013-07-12 06:09:00,
2013-07-12 01:14:00,72.4,58.2,29.97,SSW,200,3.0,4.0,61,0.00,,,0.00,VWS V14.01,2013-07-12 06:14:00,
2013-07-12 01:19:00,72.3,58.6,29.97,SSW,206,2.0,8.0,62,0.00,,,0.00,VWS V14.01,2013-07-12 06:19:00,
2013-07-12 01:24:00,72.2,58.5,29.97,South,184,4.0,8.0,62,0.00,,,0.00,VWS V14.01,2013-07-12 06:24:00,
2013-07-12 01:29:00,72.1,58.4,29.96,SSW,200,1.0,5.0,62,0.00,,,0.00,VWS V14.01,2013-07-12 06:29:00,
2013-07-12 01:35:00,72.1,58.4,29.97,South,190,6.0,11.0,62,0.00,,,0.00,VWS V14.01,2013-07-12 06:35:00,
2013-07-12 01:40:00,72.1,58.4,29.97,SSW,196,4.0,11.0,62,0.00,,,0.00,VWS V14.01,2013-07-12 06:40:00,
2013-07-12 01:45:00,72.1,58.4,29.97,WNW,289,4.0,8.0,62,0.00,,,0.00,VWS V14.01,2013-07-12 06:45:00,
2013-07-12 01:50:00,72.0,58.3,29.97,West,281,1.0,8.0,62,0.00,,,0.00,VWS V14.01,2013-07-12 06:50:00,
2013-07-12 01:55:00,72.0,58.3,29.97,East,98,0.0,10.0,62,0.00,,,0.00,VWS V14.01,2013-07-12 06:55:00,
2013-07-12 02:00:00,71.9,58.6,29.96,SW,226,7.0,7.0,63,0.00,,,0.00,VWS V14.01,2013-07-12 07:00:00,
2013-07-12 02:05:00,71.9,58.6,29.96,SW,232,4.0,7.0,63,0.00,,,0.00,VWS V14.01,2013-07-12 07:05:00,
2013-07-12 02:10:00,71.8,58.5,29.96,SW,226,0.0,8.0,63,0.00,,,0.00,VWS V14.01,2013-07-12 07:10:00,
2013-07-12 02:15:00,71.7,58.5,29.96,SW,226,2.0,9.0,63,0.00,,,0.00,VWS V14.01,2013-07-12 07:15:00,
2013-07-12 02:20:00,71.6,58.3,29.96,SW,230,4.0,10.0,63,0.00,,,0.00,VWS V14.01,2013-07-12 07:20:00,
2013-07-12 02:25:00,71.5,58.7,29.96,SSW,196,4.0,10.0,64,0.00,,,0.00,VWS V14.01,2013-07-12 07:25:00,
2013-07-12 02:30:00,71.4,58.6,29.96,SSW,194,1.0,11.0,64,0.00,,,0.00,VWS V14.01,2013-07-12 07:30:00,
2013-07-12 02:35:00,71.4,58.6,29.96,SW,225,3.0,11.0,64,0.00,,,0.00,VWS V14.01,2013-07-12 07:35:00,
2013-07-12 02:41:00,71.3,58.5,29.96,WSW,248,2.0,11.0,64,0.00,,,0.00,VWS V14.01,2013-07-12 07:41:00,
2013-07-12 02:46:00,71.2,58.8,29.96,SW,217,3.0,4.0,65,0.00,,,0.00,VWS V14.01,2013-07-12 07:46:00,
2013-07-12 02:51:00,71.1,58.8,29.96,SSE,155,6.0,12.0,65,0.00,,,0.00,VWS V14.01,2013-07-12 07:51:00,
2013-07-12 02:56:00,71.1,58.8,29.96,SSE,160,1.0,12.0,65,0.00,,,0.00,VWS V14.01,2013-07-12 07:56:00,
2013-07-12 03:01:00,71.0,58.7,29.97,South,187,3.0,14.0,65,0.00,,,0.00,VWS V14.01,2013-07-12 08:01:00,
2013-07-12 03:06:00,71.0,58.7,29.97,SW,219,3.0,14.0,65,0.00,,,0.00,VWS V14.01,2013-07-12 08:06:00,
2013-07-12 03:11:00,71.0,58.7,29.97,NNE,15,0.0,14.0,65,0.00,,,0.00,VWS V14.01,2013-07-12 08:11:00,
2013-07-12 03:16:00,71.0,58.7,29.97,SW,221,1.0,9.0,65,0.00,,,0.00,VWS V14.01,2013-07-12 08:16:00,
2013-07-12 03:21:00,70.8,58.5,29.97,SW,217,3.0,9.0,65,0.00,,,0.00,VWS V14.01,2013-07-12 08:21:00,
2013-07-12 03:26:00,70.8,58.9,29.97,WSW,240,4.0,9.0,66,0.00,,,0.00,VWS V14.01,2013-07-12 08:26:00,
2013-07-12 03:32:00,70.6,58.7,29.96,SW,227,3.0,9.0,66,0.00,,,0.00,VWS V14.01,2013-07-12 08:32:00,
2013-07-12 03:37:00,70.6,58.7,29.97,SW,221,3.0,9.0,66,0.00,,,0.00,VWS V14.01,2013-07-12 08:37:00,
2013-07-12 03:42:00,70.4,58.5,29.97,SW,227,0.0,9.0,66,0.00,,,0.00,VWS V14.01,2013-07-12 08:42:00,
2013-07-12 03:47:00,70.4,58.5,29.97,WSW,243,2.0,7.0,66,0.00,,,0.00,VWS V14.01,2013-07-12 08:47:00,
2013-07-12 03:52:00,70.3,58.8,29.96,SSW,198,5.0,11.0,67,0.00,,,0.00,VWS V14.01,2013-07-12 08:52:00,
2013-07-12 03:57:00,70.2,58.7,29.96,South,189,6.0,11.0,67,0.00,,,0.00,VWS V14.01,2013-07-12 08:57:00,
2013-07-12 04:02:00,70.1,58.7,29.96,WSW,242,1.0,7.0,67,0.00,,,0.00,VWS V14.01,2013-07-12 09:02:00,
2013-07-12 04:07:00,70.0,59.0,29.97,WSW,244,5.0,7.0,68,0.00,,,0.00,VWS V14.01,2013-07-12 09:07:00,
2013-07-12 04:12:00,69.9,58.9,29.96,South,188,6.0,9.0,68,0.00,,,0.00,VWS V14.01,2013-07-12 09:12:00,
2013-07-12 04:17:00,69.8,58.8,29.97,SW,214,0.0,8.0,68,0.00,,,0.00,VWS V14.01,2013-07-12 09:17:00,
2013-07-12 04:22:00,69.8,58.8,29.96,South,171,8.0,10.0,68,0.00,,,0.00,VWS V14.01,2013-07-12 09:22:00,
2013-07-12 04:27:00,69.8,58.8,29.96,SW,236,1.0,10.0,68,0.00,,,0.00,VWS V14.01,2013-07-12 09:27:00,
2013-07-12 04:33:00,69.8,58.8,29.97,SSW,205,3.0,7.0,68,0.00,,,0.00,VWS V14.01,2013-07-12 09:33:00,
2013-07-12 04:38:00,69.8,58.8,29.97,South,188,4.0,7.0,68,0.00,,,0.00,VWS V14.01,2013-07-12 09:38:00,
2013-07-12 04:43:00,69.7,58.7,29.97,South,182,4.0,9.0,68,0.00,,,0.00,VWS V14.01,2013-07-12 09:43:00,
2013-07-12 04:48:00,69.6,59.0,29.97,SW,222,2.0,6.0,69,0.00,,,0.00,VWS V14.01,2013-07-12 09:48:00,
2013-07-12 04:53:00,69.6,59.0,29.97,South,180,6.0,7.0,69,0.00,,,0.00,VWS V14.01,2013-07-12 09:53:00,
2013-07-12 04:58:00,69.5,58.9,29.97,SSW,207,2.0,8.0,69,0.00,,,0.00,VWS V14.01,2013-07-12 09:58:00,
2013-07-12 05:03:00,69.5,58.9,29.97,West,269,1.0,11.0,69,0.00,,,0.00,VWS V14.01,2013-07-12 10:03:00,
2013-07-12 05:08:00,69.4,58.8,29.97,SSW,209,1.0,11.0,69,0.00,,,0.00,VWS V14.01,2013-07-12 10:08:00,
2013-07-12 05:13:00,69.4,58.8,29.97,SSW,202,4.0,11.0,69,0.00,,,0.00,VWS V14.01,2013-07-12 10:13:00,
2013-07-12 05:18:00,69.3,58.7,29.97,SSW,202,4.0,8.0,69,0.00,,,0.00,VWS V14.01,2013-07-12 10:18:00,
2013-07-12 05:23:00,69.3,59.1,29.97,SSE,164,5.0,8.0,70,0.00,,,0.00,VWS V14.01,2013-07-12 10:23:00,
2013-07-12 05:29:00,69.2,59.0,29.97,South,175,5.0,9.0,70,0.00,,,0.00,VWS V14.01,2013-07-12 10:29:00,
2013-07-12 05:34:00,69.2,59.0,29.97,SSW,196,2.0,9.0,70,0.00,,,0.00,VWS V14.01,2013-07-12 10:34:00,
2013-07-12 05:39:00,69.2,59.0,29.97,SSW,195,5.0,9.0,70,0.00,,,0.00,VWS V14.01,2013-07-12 10:39:00,
2013-07-12 05:44:00,69.1,58.9,29.97,SSW,193,4.0,4.0,70,0.00,,,0.00,VWS V14.01,2013-07-12 10:44:00,
2013-07-12 05:49:00,69.0,58.8,29.97,West,274,2.0,8.0,70,0.00,,,0.00,VWS V14.01,2013-07-12 10:49:00,
2013-07-12 05:54:00,68.9,59.1,29.97,SW,234,5.0,8.0,71,0.00,,,0.00,VWS V14.01,2013-07-12 10:54:00,
2013-07-12 05:59:00,68.9,59.1,29.97,West,268,6.0,6.0,71,0.00,,,0.00,VWS V14.01,2013-07-12 10:59:00,
2013-07-12 06:04:00,68.9,59.1,29.97,South,190,2.0,7.0,71,0.00,,,0.00,VWS V14.01,2013-07-12 11:04:00,
2013-07-12 06:09:00,68.8,59.0,29.97,South,186,2.0,7.0,71,0.00,,,0.00,VWS V14.01,2013-07-12 11:09:00,
2013-07-12 06:14:00,68.8,59.0,29.98,SSW,200,4.0,4.0,71,0.00,,,0.00,VWS V14.01,2013-07-12 11:14:00,
2013-07-12 06:19:00,68.9,59.1,29.97,WSW,257,1.0,6.0,71,0.00,,,0.00,VWS V14.01,2013-07-12 11:19:00,
2013-07-12 06:24:00,69.0,59.2,29.97,SSW,201,0.0,9.0,71,0.00,,,0.00,VWS V14.01,2013-07-12 11:24:00,
2013-07-12 06:29:00,69.1,59.3,29.97,South,186,2.0,3.0,71,0.00,,,0.00,VWS V14.01,2013-07-12 11:29:00,
2013-07-12 06:35:00,69.1,59.3,29.97,South,177,6.0,7.0,71,0.00,,,0.00,VWS V14.01,2013-07-12 11:35:00,
2013-07-12 06:40:00,69.2,59.4,29.97,South,180,0.0,8.0,71,0.00,,,0.00,VWS V14.01,2013-07-12 11:40:00,
2013-07-12 06:45:00,69.4,59.6,29.97,South,190,7.0,8.0,71,0.00,,,0.00,VWS V14.01,2013-07-12 11:45:00,
2013-07-12 06:50:00,69.5,59.7,29.97,WSW,244,3.0,11.0,71,0.00,,,0.00,VWS V14.01,2013-07-12 11:50:00,
2013-07-12 06:55:00,69.6,59.8,29.97,WSW,247,4.0,11.0,71,0.00,,,0.00,VWS V14.01,2013-07-12 11:55:00,
2013-07-12 07:00:00,69.8,60.0,29.97,SSW,213,4.0,7.0,71,0.00,,,0.00,VWS V14.01,2013-07-12 12:00:00,
2013-07-12 07:05:00,69.9,59.7,29.97,SW,226,4.0,10.0,70,0.00,,,0.00,VWS V14.01,2013-07-12 12:05:00,
2013-07-12 07:10:00,70.1,59.9,29.97,South,191,2.0,11.0,70,0.00,,,0.00,VWS V14.01,2013-07-12 12:10:00,
2013-07-12 07:15:00,70.2,60.0,29.97,ESE,113,5.0,8.0,70,0.00,,,0.00,VWS V14.01,2013-07-12 12:15:00,
2013-07-12 07:20:00,70.4,60.6,29.97,SE,127,4.0,10.0,71,0.00,,,0.00,VWS V14.01,2013-07-12 12:20:00,
2013-07-12 07:25:00,70.7,60.5,29.97,SW,231,10.0,10.0,70,0.00,,,0.00,VWS V14.01,2013-07-12 12:25:00,
2013-07-12 07:30:00,70.6,60.0,29.97,SSW,202,7.0,12.0,69,0.00,,,0.00,VWS V14.01,2013-07-12 12:30:00,
2013-07-12 07:35:00,70.4,60.2,29.97,SSE,157,9.0,12.0,70,0.00,,,0.00,VWS V14.01,2013-07-12 12:35:00,
2013-07-12 07:41:00,70.2,60.4,29.97,SW,221,5.0,12.0,71,0.00,,,0.00,VWS V14.01,2013-07-12 12:41:00,
2013-07-12 07:46:00,70.2,60.0,29.97,SSW,194,4.0,12.0,70,0.00,,,0.00,VWS V14.01,2013-07-12 12:46:00,
2013-07-12 07:51:00,70.1,60.3,29.98,SSW,207,12.0,12.0,71,0.00,,,0.00,VWS V14.01,2013-07-12 12:51:00,
2013-07-12 07:56:00,70.2,60.4,29.98,SSW,207,6.0,12.0,71,0.00,,,0.00,VWS V14.01,2013-07-12 12:56:00,
2013-07-12 08:01:00,70.5,60.3,29.98,South,188,8.0,8.0,70,0.00,,,0.00,VWS V14.01,2013-07-12 13:01:00,
2013-07-12 08:06:00,70.9,60.6,29.98,South,186,2.0,12.0,70,0.00,,,0.00,VWS V14.01,2013-07-12 13:06:00,
2013-07-12 08:11:00,71.1,60.4,29.98,SW,224,6.0,12.0,69,0.00,,,0.00,VWS V14.01,2013-07-12 13:11:00,
2013-07-12 08:16:00,71.4,60.7,29.98,SE,136,1.0,8.0,69,0.00,,,0.00,VWS V14.01,2013-07-12 13:16:00,
2013-07-12 08:21:00,71.7,60.6,29.98,South,171,6.0,11.0,68,0.00,,,0.00,VWS V14.01,2013-07-12 13:21:00,
2013-07-12 08:26:00,72.1,61.0,29.97,SW,219,6.0,11.0,68,0.00,,,0.00,VWS V14.01,2013-07-12 13:26:00,
2013-07-12 08:31:00,72.3,61.6,29.97,South,169,4.0,10.0,69,0.00,,,0.00,VWS V14.01,2013-07-12 13:31:00,
2013-07-12 08:37:00,72.6,61.4,29.97,South,171,1.0,11.0,68,0.00,,,0.00,VWS V14.01,2013-07-12 13:37:00,
2013-07-12 08:42:00,72.9,61.3,29.97,South,191,2.0,13.0,67,0.00,,,0.00,VWS V14.01,2013-07-12 13:42:00,
2013-07-12 08:47:00,73.2,61.6,29.97,SSW,203,5.0,11.0,67,0.00,,,0.00,VWS V14.01,2013-07-12 13:47:00,
2013-07-12 08:52:00,73.5,61.5,29.97,SW,217,8.0,13.0,66,0.00,,,0.00,VWS V14.01,2013-07-12 13:52:00,
2013-07-12 08:57:00,73.8,61.7,29.97,SW,217,6.0,13.0,66,0.00,,,0.00,VWS V14.01,2013-07-12 13:57:00,
2013-07-12 09:04:00,74.2,61.7,29.97,NW,324,3.0,7.0,65,0.00,,,0.00,VWS V14.01,2013-07-12 14:04:00,
2013-07-12 09:09:00,74.7,62.2,29.97,SSW,203,3.0,9.0,65,0.00,,,0.00,VWS V14.01,2013-07-12 14:09:00,
2013-07-12 09:14:00,75.1,62.5,29.97,South,178,4.0,5.0,65,0.00,,,0.00,VWS V14.01,2013-07-12 14:14:00,
2013-07-12 09:19:00,75.4,62.4,29.97,South,191,3.0,12.0,64,0.00,,,0.00,VWS V14.01,2013-07-12 14:19:00,
2013-07-12 09:24:00,75.9,62.9,29.97,SSW,207,6.0,12.0,64,0.00,,,0.00,VWS V14.01,2013-07-12 14:24:00,
2013-07-12 09:29:00,76.2,62.7,29.97,SSE,167,6.0,7.0,63,0.00,,,0.00,VWS V14.01,2013-07-12 14:29:00,
2013-07-12 09:34:00,76.5,63.4,29.97,SSW,212,1.0,10.0,64,0.00,,,0.00,VWS V14.01,2013-07-12 14:34:00,
2013-07-12 09:39:00,76.9,63.4,29.97,SSW,193,2.0,10.0,63,0.00,,,0.00,VWS V14.01,2013-07-12 14:39:00,
2013-07-12 09:44:00,77.4,62.9,29.97,South,171,1.0,4.0,61,0.00,,,0.00,VWS V14.01,2013-07-12 14:44:00,
2013-07-12 09:50:00,77.7,63.2,29.97,SSW,196,3.0,10.0,61,0.00,,,0.00,VWS V14.01,2013-07-12 14:50:00,
2013-07-12 09:55:00,78.1,63.6,29.96,SSW,194,5.0,10.0,61,0.00,,,0.00,VWS V14.01,2013-07-12 14:55:00,
2013-07-12 10:00:00,78.2,62.7,29.97,SSW,213,8.0,13.0,59,0.00,,,0.00,VWS V14.01,2013-07-12 15:00:00,
2013-07-12 10:05:00,78.2,64.1,29.97,SSW,200,1.0,13.0,62,0.00,,,0.00,VWS V14.01,2013-07-12 15:05:00,
2013-07-12 10:10:00,78.8,63.3,29.97,SE,138,0.0,13.0,59,0.00,,,0.00,VWS V14.01,2013-07-12 15:10:00,
2013-07-12 10:15:00,79.2,63.7,29.97,SSE,148,4.0,9.0,59,0.00,,,0.00,VWS V14.01,2013-07-12 15:15:00,
2013-07-12 10:20:00,79.1,63.1,29.96,SSW,200,8.0,14.0,58,0.00,,,0.00,VWS V14.01,2013-07-12 15:20:00,
2013-07-12 10:25:00,79.4,63.3,29.96,SE,139,2.0,14.0,58,0.00,,,0.00,VWS V14.01,2013-07-12 15:25:00,
2013-07-12 10:30:00,79.6,63.0,29.96,SSW,194,6.0,8.0,57,0.00,,,0.00,VWS V14.01,2013-07-12 15:30:00,
2013-07-12 10:35:00,79.6,63.5,29.96,SSW,199,6.0,9.0,58,0.00,,,0.00,VWS V14.01,2013-07-12 15:35:00,
2013-07-12 10:40:00,79.8,63.7,29.95,South,178,5.0,14.0,58,0.00,,,0.00,VWS V14.01,2013-07-12 15:40:00,
2013-07-12 10:45:00,80.0,63.4,29.95,WSW,237,4.0,13.0,57,0.00,,,0.00,VWS V14.01,2013-07-12 15:45:00,
2013-07-12 10:51:00,80.2,63.1,29.95,South,171,11.0,13.0,56,0.00,,,0.00,VWS V14.01,2013-07-12 15:51:00,
2013-07-12 10:56:00,80.2,63.1,29.95,SSW,198,9.0,14.0,56,0.00,,,0.00,VWS V14.01,2013-07-12 15:56:00,
2013-07-12 11:01:00,80.6,63.5,29.95,West,269,1.0,13.0,56,0.00,,,0.00,VWS V14.01,2013-07-12 16:01:00,
2013-07-12 11:06:00,80.7,63.6,29.95,SSE,150,4.0,19.0,56,0.00,,,0.00,VWS V14.01,2013-07-12 16:06:00,
2013-07-12 11:11:00,81.0,64.3,29.95,NW,308,5.0,19.0,57,0.00,,,0.00,VWS V14.01,2013-07-12 16:11:00,
2013-07-12 11:16:00,81.4,64.2,29.94,South,189,3.0,13.0,56,0.00,,,0.00,VWS V14.01,2013-07-12 16:16:00,
2013-07-12 11:21:00,81.8,64.6,29.94,WSW,242,4.0,13.0,56,0.00,,,0.00,VWS V14.01,2013-07-12 16:21:00,
2013-07-12 11:26:00,82.0,64.3,29.94,South,184,4.0,13.0,55,0.00,,,0.00,VWS V14.01,2013-07-12 16:26:00,
2013-07-12 11:31:00,82.0,64.3,29.94,South,173,6.0,10.0,55,0.00,,,0.00,VWS V14.01,2013-07-12 16:31:00,
2013-07-12 11:36:00,82.3,65.1,29.94,SSW,212,3.0,10.0,56,0.00,,,0.00,VWS V14.01,2013-07-12 16:36:00,
2013-07-12 11:41:00,82.7,63.8,29.94,SSW,198,3.0,10.0,53,0.00,,,0.00,VWS V14.01,2013-07-12 16:41:00,
2013-07-12 11:47:00,82.9,64.6,29.94,South,175,6.0,9.0,54,0.00,,,0.00,VWS V14.01,2013-07-12 16:47:00,
2013-07-12 11:52:00,83.1,65.3,29.94,SSW,205,5.0,12.0,55,0.00,,,0.00,VWS V14.01,2013-07-12 16:52:00,
2013-07-12 11:57:00,83.4,65.0,29.94,SSE,157,4.0,12.0,54,0.00,,,0.00,VWS V14.01,2013-07-12 16:57:00,
2013-07-12 12:03:00,83.7,65.8,29.94,South,188,6.0,6.0,55,0.00,,,0.00,VWS V14.01,2013-07-12 17:03:00,
2013-07-12 12:08:00,83.9,64.4,29.94,SSE,157,13.0,13.0,52,0.00,,,0.00,VWS V14.01,2013-07-12 17:08:00,
2013-07-12 12:14:00,83.8,64.9,29.94,SSW,198,8.0,12.0,53,0.00,,,0.00,VWS V14.01,2013-07-12 17:14:00,
2013-07-12 12:19:00,83.6,64.7,29.94,SSW,212,5.0,12.0,53,0.00,,,0.00,VWS V14.01,2013-07-12 17:19:00,
2013-07-12 12:24:00,83.6,64.7,29.94,SE,130,6.0,12.0,53,0.00,,,0.00,VWS V14.01,2013-07-12 17:24:00,
2013-07-12 12:29:00,83.8,64.9,29.94,South,186,5.0,8.0,53,0.00,,,0.00,VWS V14.01,2013-07-12 17:29:00,
2013-07-12 12:35:00,84.1,64.6,29.94,SSE,161,1.0,8.0,52,0.00,,,0.00,VWS V14.01,2013-07-12 17:35:00,
2013-07-12 12:40:00,84.6,65.6,29.94,SW,226,7.0,11.0,53,0.00,,,0.00,VWS V14.01,2013-07-12 17:40:00,
2013-07-12 12:46:00,85.0,64.9,29.93,WSW,245,2.0,10.0,51,0.00,,,0.00,VWS V14.01,2013-07-12 17:46:00,
2013-07-12 12:51:00,84.9,64.8,29.93,SSW,205,11.0,11.0,51,0.00,,,0.00,VWS V14.01,2013-07-12 17:51:00,
2013-07-12 12:56:00,85.2,64.5,29.93,South,176,4.0,11.0,50,0.00,,,0.00,VWS V14.01,2013-07-12 17:56:00,
2013-07-12 13:01:00,85.5,64.8,29.93,SSE,159,2.0,10.0,50,0.00,,,0.00,VWS V14.01,2013-07-12 18:01:00,
2013-07-12 13:06:00,85.3,65.7,29.93,SSW,197,2.0,12.0,52,0.00,,,0.00,VWS V14.01,2013-07-12 18:06:00,
2013-07-12 13:12:00,85.8,65.0,29.93,SE,143,1.0,12.0,50,0.00,,,0.00,VWS V14.01,2013-07-12 18:12:00,
2013-07-12 13:17:00,86.0,64.0,29.92,SW,223,8.0,13.0,48,0.00,,,0.00,VWS V14.01,2013-07-12 18:17:00,
2013-07-12 13:22:00,85.8,63.9,29.92,WNW,289,8.0,19.0,48,0.00,,,0.00,VWS V14.01,2013-07-12 18:22:00,
2013-07-12 13:27:00,85.9,65.7,29.92,ENE,68,3.0,19.0,51,0.00,,,0.00,VWS V14.01,2013-07-12 18:27:00,
2013-07-12 13:32:00,86.4,65.6,29.92,South,169,5.0,8.0,50,0.00,,,0.00,VWS V14.01,2013-07-12 18:32:00,
2013-07-12 13:37:00,86.4,65.6,29.92,SW,215,2.0,17.0,50,0.00,,,0.00,VWS V14.01,2013-07-12 18:37:00,
2013-07-12 13:42:00,86.3,66.6,29.92,SW,221,4.0,17.0,52,0.00,,,0.00,VWS V14.01,2013-07-12 18:42:00,
2013-07-12 13:47:00,86.6,65.8,29.92,South,180,4.0,10.0,50,0.00,,,0.00,VWS V14.01,2013-07-12 18:47:00,
2013-07-12 13:53:00,86.5,65.7,29.92,West,265,7.0,10.0,50,0.00,,,0.00,VWS V14.01,2013-07-12 18:53:00,
2013-07-12 13:58:00,86.3,65.5,29.92,South,180,3.0,13.0,50,0.00,,,0.00,VWS V14.01,2013-07-12 18:58:00,
2013-07-12 14:03:00,86.3,66.1,29.92,South,173,2.0,15.0,51,0.00,,,0.00,VWS V14.01,2013-07-12 19:03:00,
2013-07-12 14:08:00,86.6,66.9,29.92,SE,140,4.0,17.0,52,0.00,,,0.00,VWS V14.01,2013-07-12 19:08:00,
2013-07-12 14:13:00,86.6,65.8,29.92,South,176,9.0,17.0,50,0.00,,,0.00,VWS V14.01,2013-07-12 19:13:00,
2013-07-12 14:19:00,86.6,66.3,29.92,SSE,167,8.0,13.0,51,0.00,,,0.00,VWS V14.01,2013-07-12 19:19:00,
2013-07-12 14:24:00,86.8,65.4,29.92,SSE,163,4.0,13.0,49,0.00,,,0.00,VWS V14.01,2013-07-12 19:24:00,
2013-07-12 14:29:00,86.9,65.5,29.92,East,98,8.0,8.0,49,0.00,,,0.00,VWS V14.01,2013-07-12 19:29:00,
2013-07-12 14:35:00,86.8,65.9,29.92,SSW,211,4.0,10.0,50,0.00,,,0.00,VWS V14.01,2013-07-12 19:35:00,
2013-07-12 14:40:00,87.2,65.7,29.92,West,269,4.0,11.0,49,0.00,,,0.00,VWS V14.01,2013-07-12 19:40:00,
2013-07-12 14:45:00,87.2,64.5,29.92,SW,231,8.0,10.0,47,0.00,,,0.00,VWS V14.01,2013-07-12 19:45:00,
2013-07-12 14:50:00,87.3,65.2,29.92,SSE,161,9.0,11.0,48,0.00,,,0.00,VWS V14.01,2013-07-12 19:50:00,
2013-07-12 14:56:00,87.6,64.9,29.91,SSE,151,5.0,11.0,47,0.00,,,0.00,VWS V14.01,2013-07-12 19:56:00,
2013-07-12 15:01:00,87.6,64.9,29.92,SSE,166,10.0,14.0,47,0.00,,,0.00,VWS V14.01,2013-07-12 20:01:00,
2013-07-12 15:06:00,87.5,64.2,29.91,South,184,6.0,18.0,46,0.00,,,0.00,VWS V14.01,2013-07-12 20:06:00,
2013-07-12 15:11:00,87.6,64.3,29.91,SE,136,6.0,18.0,46,0.00,,,0.00,VWS V14.01,2013-07-12 20:11:00,
2013-07-12 15:16:00,87.5,64.8,29.91,South,190,3.0,11.0,47,0.00,,,0.00,VWS V14.01,2013-07-12 20:16:00,
2013-07-12 15:21:00,88.1,66.6,29.91,South,172,5.0,12.0,49,0.00,,,0.00,VWS V14.01,2013-07-12 20:21:00,
2013-07-12 15:26:00,88.0,64.0,29.91,SW,235,6.0,14.0,45,0.00,,,0.00,VWS V14.01,2013-07-12 20:26:00,
2013-07-12 15:32:00,88.2,65.4,29.90,SW,227,6.0,7.0,47,0.00,,,0.00,VWS V14.01,2013-07-12 20:32:00,
2013-07-12 15:37:00,88.3,65.5,29.90,SSE,150,6.0,11.0,47,0.00,,,0.00,VWS V14.01,2013-07-12 20:37:00,
2013-07-12 15:42:00,88.1,64.7,29.90,South,184,8.0,16.0,46,0.00,,,0.00,VWS V14.01,2013-07-12 20:42:00,
2013-07-12 15:47:00,88.1,64.1,29.90,SSW,209,4.0,6.0,45,0.00,,,0.00,VWS V14.01,2013-07-12 20:47:00,
2013-07-12 15:52:00,88.0,65.3,29.90,WNW,286,6.0,12.0,47,0.00,,,0.00,VWS V14.01,2013-07-12 20:52:00,
2013-07-12 15:57:00,87.9,65.2,29.90,SSE,150,4.0,12.0,47,0.00,,,0.00,VWS V14.01,2013-07-12 20:57:00,
2013-07-12 16:02:00,87.7,65.0,29.90,SSE,163,2.0,14.0,47,0.00,,,0.00,VWS V14.01,2013-07-12 21:02:00,
2013-07-12 16:07:00,87.5,65.4,29.90,SW,225,10.0,14.0,48,0.00,,,0.00,VWS V14.01,2013-07-12 21:07:00,
2013-07-12 16:13:00,87.5,65.4,29.90,SSE,148,7.0,14.0,48,0.00,,,0.00,VWS V14.01,2013-07-12 21:13:00,
2013-07-12 16:19:00,87.7,65.6,29.90,South,187,2.0,10.0,48,0.00,,,0.00,VWS V14.01,2013-07-12 21:19:00,
2013-07-12 16:24:00,87.8,65.1,29.90,South,178,5.0,16.0,47,0.00,,,0.00,VWS V14.01,2013-07-12 21:24:00,
2013-07-12 16:29:00,87.7,65.0,29.90,SSW,210,5.0,16.0,47,0.00,,,0.00,VWS V14.01,2013-07-12 21:29:00,
2013-07-12 16:34:00,87.7,65.0,29.90,West,263,3.0,16.0,47,0.00,,,0.00,VWS V14.01,2013-07-12 21:34:00,
2013-07-12 16:40:00,87.7,65.0,29.89,SE,145,5.0,17.0,47,0.00,,,0.00,VWS V14.01,2013-07-12 21:40:00,
2013-07-12 16:45:00,87.8,63.8,29.89,SSE,155,5.0,16.0,45,0.00,,,0.00,VWS V14.01,2013-07-12 21:45:00,
2013-07-12 16:50:00,87.8,65.1,29.89,ESE,117,6.0,16.0,47,0.00,,,0.00,VWS V14.01,2013-07-12 21:50:00,
2013-07-12 16:55:00,87.8,63.8,29.89,WSW,244,4.0,16.0,45,0.00,,,0.00,VWS V14.01,2013-07-12 21:55:00,
2013-07-12 17:00:00,87.7,64.4,29.89,South,183,9.0,10.0,46,0.00,,,0.00,VWS V14.01,2013-07-12 22:00:00,
2013-07-12 17:05:00,87.8,64.5,29.89,SSE,159,5.0,13.0,46,0.00,,,0.00,VWS V14.01,2013-07-12 22:05:00,
2013-07-12 17:10:00,87.4,64.1,29.90,SSE,161,7.0,16.0,46,0.00,,,0.00,VWS V14.01,2013-07-12 22:10:00,
2013-07-12 17:15:00,87.3,64.6,29.90,SW,218,5.0,7.0,47,0.00,,,0.00,VWS V14.01,2013-07-12 22:15:00,
2013-07-12 17:21:00,87.3,64.0,29.89,South,190,3.0,9.0,46,0.00,,,0.00,VWS V14.01,2013-07-12 22:21:00,
2013-07-12 17:27:00,87.3,64.6,29.89,SSE,157,4.0,11.0,47,0.00,,,0.00,VWS V14.01,2013-07-12 22:27:00,
2013-07-12 17:32:00,87.4,64.7,29.89,South,173,5.0,12.0,47,0.00,,,0.00,VWS V14.01,2013-07-12 22:32:00,
2013-07-12 17:37:00,87.2,64.5,29.89,South,178,2.0,12.0,47,0.00,,,0.00,VWS V14.01,2013-07-12 22:37:00,
2013-07-12 17:42:00,87.1,64.4,29.89,SW,216,3.0,12.0,47,0.00,,,0.00,VWS V14.01,2013-07-12 22:42:00,
2013-07-12 17:47:00,87.1,63.8,29.89,SSE,150,4.0,14.0,46,0.00,,,0.00,VWS V14.01,2013-07-12 22:47:00,
2013-07-12 17:52:00,87.0,63.7,29.88,SSW,201,3.0,14.0,46,0.00,,,0.00,VWS V14.01,2013-07-12 22:52:00,
2013-07-12 17:58:00,86.7,64.1,29.89,SSE,164,16.0,16.0,47,0.00,,,0.00,VWS V14.01,2013-07-12 22:58:00,
2013-07-12 18:03:00,86.6,64.6,29.89,South,186,3.0,14.0,48,0.00,,,0.00,VWS V14.01,2013-07-12 23:03:00,
2013-07-12 18:09:00,86.7,64.1,29.89,South,189,3.0,14.0,47,0.00,,,0.00,VWS V14.01,2013-07-12 23:09:00,
2013-07-12 18:14:00,86.6,64.6,29.89,SE,136,1.0,14.0,48,0.00,,,0.00,VWS V14.01,2013-07-12 23:14:00,
2013-07-12 18:19:00,86.3,63.7,29.88,SSE,147,6.0,11.0,47,0.00,,,0.00,VWS V14.01,2013-07-12 23:19:00,
2013-07-12 18:24:00,86.0,64.0,29.88,SSW,202,2.0,11.0,48,0.00,,,0.00,VWS V14.01,2013-07-12 23:24:00,
2013-07-12 18:29:00,85.8,63.9,29.88,SSW,200,3.0,7.0,48,0.00,,,0.00,VWS V14.01,2013-07-12 23:29:00,
2013-07-12 18:35:00,85.7,63.8,29.89,SE,145,5.0,13.0,48,0.00,,,0.00,VWS V14.01,2013-07-12 23:35:00,
2013-07-12 18:40:00,85.7,63.2,29.88,SSW,213,8.0,13.0,47,0.00,,,0.00,VWS V14.01,2013-07-12 23:40:00,
2013-07-12 18:45:00,85.6,63.7,29.88,South,173,6.0,6.0,48,0.00,,,0.00,VWS V14.01,2013-07-12 23:45:00,
2013-07-12 18:50:00,85.5,64.2,29.88,SSE,161,1.0,8.0,49,0.00,,,0.00,VWS V14.01,2013-07-12 23:50:00,
2013-07-12 18:55:00,85.2,63.9,29.89,WNW,291,5.0,11.0,49,0.00,,,0.00,VWS V14.01,2013-07-12 23:55:00,
2013-07-12 19:00:00,84.9,64.2,29.88,South,187,4.0,6.0,50,0.00,,,0.00,VWS V14.01,2013-07-13 00:00:00,
2013-07-12 19:05:00,84.5,63.3,29.89,SSW,193,7.0,16.0,49,0.00,,,0.00,VWS V14.01,2013-07-13 00:05:00,
2013-07-12 19:10:00,84.2,64.1,29.89,SW,220,2.0,16.0,51,0.00,,,0.00,VWS V14.01,2013-07-13 00:10:00,
2013-07-12 19:16:00,83.9,63.3,29.89,SSE,153,4.0,8.0,50,0.00,,,0.00,VWS V14.01,2013-07-13 00:16:00,
2013-07-12 19:21:00,83.7,63.1,29.89,SSE,164,5.0,13.0,50,0.00,,,0.00,VWS V14.01,2013-07-13 00:21:00,
2013-07-12 19:26:00,83.6,63.0,29.89,SSW,192,5.0,13.0,50,0.00,,,0.00,VWS V14.01,2013-07-13 00:26:00,
2013-07-12 19:31:00,83.4,62.8,29.89,South,190,6.0,8.0,50,0.00,,,0.00,VWS V14.01,2013-07-13 00:31:00,
2013-07-12 19:36:00,83.4,63.4,29.89,South,169,1.0,12.0,51,0.00,,,0.00,VWS V14.01,2013-07-13 00:36:00,
2013-07-12 19:41:00,83.1,63.1,29.88,SSE,166,2.0,12.0,51,0.00,,,0.00,VWS V14.01,2013-07-13 00:41:00,
2013-07-12 19:46:00,83.0,63.6,29.88,SW,232,3.0,6.0,52,0.00,,,0.00,VWS V14.01,2013-07-13 00:46:00,
2013-07-12 19:52:00,82.7,63.8,29.88,SW,232,5.0,6.0,53,0.00,,,0.00,VWS V14.01,2013-07-13 00:52:00,
2013-07-12 19:58:00,82.5,63.7,29.88,SSW,211,1.0,9.0,53,0.00,,,0.00,VWS V14.01,2013-07-13 00:58:00,
2013-07-12 20:03:00,82.2,63.9,29.88,South,177,2.0,9.0,54,0.00,,,0.00,VWS V14.01,2013-07-13 01:03:00,
2013-07-12 20:08:00,82.0,63.2,29.87,SSE,155,6.0,19.0,53,0.00,,,0.00,VWS V14.01,2013-07-13 01:08:00,
2013-07-12 20:13:00,81.8,63.5,29.87,SSW,195,0.0,19.0,54,0.00,,,0.00,VWS V14.01,2013-07-13 01:13:00,
2013-07-12 20:19:00,81.6,63.4,29.87,South,170,6.0,9.0,54,0.00,,,0.00,VWS V14.01,2013-07-13 01:19:00,
2013-07-12 20:24:00,81.5,63.8,29.87,South,182,2.0,9.0,55,0.00,,,0.00,VWS V14.01,2013-07-13 01:24:00,
2013-07-12 20:29:00,81.3,63.6,29.87,ESE,108,0.0,1.0,55,0.00,,,0.00,VWS V14.01,2013-07-13 01:29:00,
2013-07-12 20:34:00,81.2,63.5,29.87,SW,236,3.0,10.0,55,0.00,,,0.00,VWS V14.01,2013-07-13 01:34:00,
2013-07-12 20:40:00,81.0,63.3,29.87,WSW,241,7.0,14.0,55,0.00,,,0.00,VWS V14.01,2013-07-13 01:40:00,
2013-07-12 20:45:00,80.9,63.2,29.87,SE,139,0.0,6.0,55,0.00,,,0.00,VWS V14.01,2013-07-13 01:45:00,
2013-07-12 20:50:00,80.7,63.0,29.87,SSW,210,4.0,10.0,55,0.00,,,0.00,VWS V14.01,2013-07-13 01:50:00,
2013-07-12 20:56:00,80.6,63.0,29.87,West,274,1.0,12.0,55,0.00,,,0.00,VWS V14.01,2013-07-13 01:56:00,
2013-07-12 21:02:00,80.4,62.8,29.87,SSW,212,1.0,7.0,55,0.00,,,0.00,VWS V14.01,2013-07-13 02:02:00,
2013-07-12 21:07:00,80.2,62.6,29.87,South,191,6.0,9.0,55,0.00,,,0.00,VWS V14.01,2013-07-13 02:07:00,
2013-07-12 21:12:00,80.1,62.5,29.87,South,190,3.0,11.0,55,0.00,,,0.00,VWS V14.01,2013-07-13 02:12:00,
2013-07-12 21:18:00,80.0,62.4,29.87,South,186,2.0,14.0,55,0.00,,,0.00,VWS V14.01,2013-07-13 02:18:00,
2013-07-12 21:23:00,80.0,62.4,29.87,SW,223,6.0,14.0,55,0.00,,,0.00,VWS V14.01,2013-07-13 02:23:00,
2013-07-12 21:28:00,79.8,62.2,29.87,South,171,2.0,14.0,55,0.00,,,0.00,VWS V14.01,2013-07-13 02:28:00,
2013-07-12 21:33:00,79.6,62.5,29.87,SE,139,4.0,11.0,56,0.00,,,0.00,VWS V14.01,2013-07-13 02:33:00,
2013-07-12 21:38:00,79.5,61.9,29.87,South,185,6.0,16.0,55,0.00,,,0.00,VWS V14.01,2013-07-13 02:38:00,
2013-07-12 21:44:00,79.3,62.8,29.87,SSE,166,5.0,16.0,57,0.00,,,0.00,VWS V14.01,2013-07-13 02:44:00,
2013-07-12 21:49:00,79.0,62.5,29.87,SSW,192,6.0,7.0,57,0.00,,,0.00,VWS V14.01,2013-07-13 02:49:00,
2013-07-12 21:54:00,78.8,62.3,29.87,SSE,162,4.0,10.0,57,0.00,,,0.00,VWS V14.01,2013-07-13 02:54:00,
2013-07-12 21:59:00,78.7,62.7,29.87,SSW,200,1.0,6.0,58,0.00,,,0.00,VWS V14.01,2013-07-13 02:59:00,
2013-07-12 22:04:00,78.5,62.5,29.86,East,99,1.0,13.0,58,0.00,,,0.00,VWS V14.01,2013-07-13 03:04:00,
2013-07-12 22:10:00,78.3,61.8,29.86,SSE,162,5.0,13.0,57,0.00,,,0.00,VWS V14.01,2013-07-13 03:10:00,
2013-07-12 22:15:00,78.2,62.2,29.86,WSW,246,9.0,11.0,58,0.00,,,0.00,VWS V14.01,2013-07-13 03:15:00,
2013-07-12 22:20:00,78.1,62.1,29.86,SE,127,2.0,19.0,58,0.00,,,0.00,VWS V14.01,2013-07-13 03:20:00,
2013-07-12 22:26:00,78.0,62.0,29.87,South,191,2.0,19.0,58,0.00,,,0.00,VWS V14.01,2013-07-13 03:26:00,
2013-07-12 22:31:00,77.9,62.0,29.87,South,178,5.0,7.0,58,0.00,,,0.00,VWS V14.01,2013-07-13 03:31:00,
2013-07-12 22:36:00,78.0,62.0,29.87,SSW,201,10.0,17.0,58,0.00,,,0.00,VWS V14.01,2013-07-13 03:36:00,
2013-07-12 22:41:00,77.9,62.0,29.88,South,175,6.0,17.0,58,0.00,,,0.00,VWS V14.01,2013-07-13 03:41:00,
2013-07-12 22:46:00,77.8,61.9,29.88,South,188,8.0,8.0,58,0.00,,,0.00,VWS V14.01,2013-07-13 03:46:00,
2013-07-12 22:51:00,77.8,61.9,29.88,South,175,6.0,12.0,58,0.00,,,0.00,VWS V14.01,2013-07-13 03:51:00,
2013-07-12 22:57:00,77.7,61.8,29.89,SSW,200,8.0,12.0,58,0.00,,,0.00,VWS V14.01,2013-07-13 03:57:00,
2013-07-12 23:01:00,77.7,61.8,29.90,SSE,167,9.0,13.0,58,0.00,,,0.00,VWS V14.01,2013-07-13 04:01:00,
2013-07-12 23:02:00,77.6,61.7,29.90,SSW,211,5.0,13.0,58,0.00,,,0.00,VWS V14.01,2013-07-13 04:02:00,
2013-07-12 23:03:00,77.6,61.7,29.90,South,184,2.0,13.0,58,0.00,,,0.00,VWS V14.01,2013-07-13 04:03:00,
2013-07-12 23:08:00,77.5,61.6,29.90,ENE,57,1.0,19.0,58,0.00,,,0.00,VWS V14.01,2013-07-13 04:08:00,
2013-07-12 23:13:00,77.5,62.1,29.91,SE,134,1.0,19.0,59,0.00,,,0.00,VWS V14.01,2013-07-13 04:13:00,
2013-07-12 23:18:00,77.3,61.9,29.91,SW,234,6.0,10.0,59,0.00,,,0.00,VWS V14.01,2013-07-13 04:18:00,
2013-07-12 23:23:00,77.2,61.8,29.91,SE,140,2.0,14.0,59,0.00,,,0.00,VWS V14.01,2013-07-13 04:23:00,
2013-07-12 23:28:00,77.1,61.7,29.91,South,188,4.0,14.0,59,0.00,,,0.00,VWS V14.01,2013-07-13 04:28:00,
2013-07-12 23:33:00,77.0,62.1,29.91,SSW,207,6.0,11.0,60,0.00,,,0.00,VWS V14.01,2013-07-13 04:33:00,
2013-07-12 23:39:00,77.0,62.1,29.91,WSW,248,11.0,16.0,60,0.00,,,0.00,VWS V14.01,2013-07-13 04:39:00,
2013-07-12 23:44:00,76.9,62.0,29.91,SSE,150,8.0,16.0,60,0.00,,,0.00,VWS V14.01,2013-07-13 04:44:00,
2013-07-12 23:49:00,76.9,62.0,29.92,SE,134,5.0,15.0,60,0.00,,,0.00,VWS V14.01,2013-07-13 04:49:00,
2013-07-12 23:54:00,76.8,61.9,29.91,SSW,200,10.0,15.0,60,0.00,,,0.00,VWS V14.01,2013-07-13 04:54:00,
2013-07-12 23:59:00,76.7,61.8,29.91,SSE,163,1.0,1.0,60,0.00,,,0.00,VWS V14.01,2013-07-13 04:59:00,